Tracking 22882 objects as of 18-Apr-2021
HD Live streaming from Space Station
objects crossing your sky now

STARLINK-55


STARLINK-55 is no longer on orbit
STARLINK-55 is classified as:


NORAD ID: 44268
Int'l Code: 2019-029AK
Perigee: N/A
Apogee: N/A
Inclination: N/A
Period: N/A
Semi major axis: N/A
RCS: N/A
Launch date: May 24, 2019
Source: United States (US)
Launch site: AIR FORCE EASTERN TEST RANGE (AFETR)
Decay date: 2021-03-09
aabbcc
Your satellite tracking list
Your tracking list is empty




NASA's NSSDC Master Catalog

Two Line Element Set (TLE):
1 44268U 19029AK  21068.04847412  .99999999  12761-4  62063-3 0  9995
2 44268  53.1000 298.0790 0004294 211.0752 300.1477 16.55493516101208
Source of the keplerian elements: AFSPC